Regional Weather Roundup
Issued by NWS

Home | Current Version | Previous Version | Graphics & Text | Print | Product List | Glossary On
Versions: 1 2 3 4 5 6 7 8 9 10 11 12 13 14 15 16 17 18 19 20 21 22 23 24 25 26 27 28 29 30 31 32 33 34 35 36 37 38 39 40 41 42 43 44 45 46 47 48 49 50
000
ASUS43 KTOP 291159
RWRKS

WEATHER ROUNDUP FOR KANSAS
NATIONAL WEATHER SERVICE GOODLAND KS
600 AM CST THU JAN 29 2015

NOTE:  "FAIR" INDICATES FEW OR NO CLOUDS BELOW 12,000 FEET WITH NO
SIGNIFICANT WEATHER AND/OR OBSTRUCTIONS TO VISIBILITY.

KSZ001>006-013>018-027>032-041>047-291300-
NORTHWEST KANSAS

CITY           SKY/WX    TMP DP  RH WIND       PRES   REMARKS
GOODLAND       PTCLDY    31  26  82 N16       30.38R WCI  20
6HR MIN TEMP:  30; 6HR MAX TEMP:  40;

HAYS           CLEAR     36  23  60 N15       30.33R WCI  26
HILL CITY      CLEAR     32  26  78 NW9       30.36R
6HR MIN TEMP:  32; 6HR MAX TEMP:  47;

RUSSELL        CLEAR     35  29  78 N17       30.30R WCI  25
6HR MIN TEMP:  35; 6HR MAX TEMP:  50;

$$

KSZ061>065-074>080-084>089-291300-
SOUTHWEST KANSAS

CITY           SKY/WX    TMP DP  RH WIND       PRES   REMARKS
DODGE CITY     CLOUDY    37  29  72 N16       30.33R WCI  28
6HR MIN TEMP:  37; 6HR MAX TEMP:  49;

ELKHART          N/A     41  28  60 NW12        N/A
GARDEN CITY    MOCLDY    34  29  82 N10       30.36R WCI  26
6HR MIN TEMP:  34; 6HR MAX TEMP:  46;

LIBERAL        CLOUDY    41  30  65 NW18      30.37R
$$

KSZ066>073-081>083-090>101-291300-
SOUTHEAST KANSAS

CITY           SKY/WX    TMP DP  RH WIND       PRES   REMARKS
CHANUTE        CLOUDY    44  34  67 N28G37    30.16R
6HR MIN TEMP:  44; 6HR MAX TEMP:  59;

COFFEYVILLE    CLEAR     49  35  58 N16G30    30.13R
6HR MIN TEMP:  49; 6HR MAX TEMP:  62;

HUTCHINSON     MOCLDY    41  30  65 N17G28    30.25R
6HR MIN TEMP:  41; 6HR MAX TEMP:  53;

MEDICINE LODGE   N/A     42  32  67 N20G29    30.27R
NEWTON         CLOUDY    39  27  60 N28G37    30.22R WCI  28
PARSONS        CLEAR     46  35  65 N21G33    30.15R
6HR MIN TEMP:  46; 6HR MAX TEMP:  62;

WICHITA INTL   MOCLDY    43  31  62 N24G32    30.22R
6HR MIN TEMP:  43; 6HR MAX TEMP:  58;

WICHITA JABRA  MOCLDY    41  31  67 N29G36    30.20R
6HR MIN TEMP:  41; 6HR MAX TEMP:  54;

WINFIELD       PTCLDY    45  32  60 N24G36    30.19R
6HR MIN TEMP:  45; 6HR MAX TEMP:  54;

$$

KSZ007>012-019>026-033>040-048>060-102>105-291300-
NORTHEAST KANSAS

CITY           SKY/WX    TMP DP  RH WIND       PRES   REMARKS
CONCORDIA      CLOUDY    39  30  70 N20G26    30.27R WCI  29
6HR MIN TEMP:  37; 6HR MAX TEMP:  50;

EMPORIA        CLOUDY    39  30  70 N25G36    30.19R WCI  28
6HR MIN TEMP:  39; 6HR MAX TEMP:  53;

LAWRENCE       CLOUDY    39  30  70 NW28G36   30.19R WCI  28
6HR MIN TEMP:  39; 6HR MAX TEMP:  54;

MANHATTAN      CLOUDY    40  29  64 N13G22    30.26R WCI  32
6HR MIN TEMP:  40; 6HR MAX TEMP:  55;

OLATHE IND     CLOUDY    38  30  73 NW26G36   30.16R WCI  26
6HR MIN TEMP:  38; 6HR MAX TEMP:  54;

OLATHE EXE     CLOUDY    38  32  79 NW24G31   30.14R WCI  27
6HR MIN TEMP:  38; 6HR MAX TEMP:  55;

SALINA         CLOUDY    41  30  65 N20G29    30.27R
6HR MIN TEMP:  41; 6HR MAX TEMP:  50;

TOPEKA BILLARD CLOUDY    40  29  64 NW23G36   30.22R WCI  30
6HR MIN TEMP:  40; 6HR MAX TEMP:  53;

TOPEKA FORBES  CLOUDY    41  30  65 NW23      30.19R
6HR MIN TEMP:  40; 6HR MAX TEMP:  55;

$$



USA.gov is the U.S. government's official web portal to all federal, state and local government web resources and services.